Location: Aix-en-Ergny
(50.5839°N, 1.9996°E)
Time: 19:44:34
(UTC+00:00)

COSMOS 2455 - Pass Details

Date: 23 October 2019
Orbit: 901 x 909 km, 67.1° (Epoch: 11 November)

Event Time Altitude Azimuth Distance (km) Brightness Sun altitude
Exits shadow 02:57:25 43° 11° (N) 1,269 3.7 -33.3°
Drops below altitude 10° 03:01:33 10° 33° (NNE) 2,604 5.9 -32.7°
Sets 03:04:07 0° 37° (NE) 3,549 6.8 -32.3°
